Location: Bílinka
(49.3579°N, 14.3767°E)
Time: 21:25:46
(UTC+00:00)

PSLV R/B - Pass Details

Date: 01 April 2025
Orbit: 410 x 442 km, 97.7° (Epoch: 28 April)

Event Time Altitude Azimuth Distance (km) Brightness Sun altitude
Exits shadow 19:04:01 15° 60° (ENE) 1,270 5.4 -14.8°
Drops below altitude 10° 19:05:51 10° 26° (NNE) 1,543 6.1 -15.0°
Sets 19:08:27 0° 3° (N) 2,405 7.4 -15.4°
